�������l�o���
Date,Time,MP-1(��Sv/h),MP-2(��Sv/h),MP-3(��Sv/h),MP-4(��Sv/h),MP-5(��Sv/h),MP-6(��Sv/h),MP-7(��Sv/h),MP-8(��Sv/h),����,����(m/s),���J
2017/08/17,00:00,0.896,1.388,0.932,1.674,1.133,0.500,0.911,0.844,�k�k��,2.5,�L
2017/08/17,00:10,0.897,1.392,0.935,1.680,1.134,0.501,0.911,0.847,�k,2.6,�L
2017/08/17,00:20,0.895,1.396,0.933,1.679,1.132,0.501,0.910,0.846,�k,2.6,�L
2017/08/17,00:30,0.899,1.398,0.936,1.682,1.132,0.500,0.911,0.845,�k�k��,2.0,�L
2017/08/17,00:40,0.898,1.399,0.934,1.680,1.128,0.500,0.910,0.846,�k�k��,1.5,�L
2017/08/17,00:50,0.899,1.398,0.936,1.677,1.130,0.500,0.908,0.846,�k�k��,1.7,�L
2017/08/17,01:00,0.897,1.399,0.937,1.681,1.133,0.501,0.907,0.845,�k�k��,1.2,�L
2017/08/17,01:10,0.900,1.401,0.936,1.686,1.131,0.501,0.909,0.843,�k�k��,1.9,�L
2017/08/17,01:20,0.896,1.390,0.935,1.679,1.124,0.500,0.907,0.841,�k,2.6,�L
2017/08/17,01:30,0.890,1.389,0.933,1.671,1.120,0.499,0.908,0.844,�k,2.0,�L
2017/08/17,01:40,0.896,1.391,0.936,1.675,1.126,0.501,0.908,0.844,�k�k��,1.7,�L
2017/08/17,01:50,0.896,1.396,0.937,1.679,1.129,0.500,0.908,0.844,�k�k��,2.0,�L
2017/08/17,02:00,0.898,1.397,0.934,1.680,1.125,0.500,0.908,0.843,�k�k��,2.9,�L
2017/08/17,02:10,0.901,1.400,0.935,1.678,1.125,0.501,0.908,0.845,�k�k��,3.4,�L
2017/08/17,02:20,0.903,1.401,0.936,1.682,1.126,0.499,0.908,0.842,�k�k��,3.5,�L
2017/08/17,02:30,0.901,1.399,0.935,1.679,1.123,0.499,0.907,0.844,�k�k��,2.5,�L
2017/08/17,02:40,0.899,1.397,0.934,1.677,1.125,0.499,0.907,0.842,�k,2.3,�L
2017/08/17,02:50,0.900,1.400,0.935,1.681,1.125,0.501,0.909,0.843,�k,2.3,�L
2017/08/17,03:00,0.901,1.402,0.938,1.683,1.128,0.500,0.910,0.844,�k,2.5,�L
2017/08/17,03:10,0.903,1.405,0.941,1.687,1.130,0.501,0.911,0.844,�k�k��,3.0,�L
2017/08/17,03:20,0.903,1.408,0.940,1.691,1.131,0.501,0.909,0.847,�k,2.9,��
2017/08/17,03:30,0.906,1.411,0.941,1.696,1.134,0.501,0.911,0.847,�k�k��,2.8,��
2017/08/17,03:40,0.907,1.410,0.941,1.695,1.131,0.502,0.911,0.846,�k�k��,3.3,��
2017/08/17,03:50,0.906,1.411,0.943,1.697,1.138,0.502,0.912,0.846,�k�k��,2.9,�L
2017/08/17,04:00,0.907,1.414,0.944,1.699,1.137,0.503,0.917,0.847,�k�k��,2.9,�L
2017/08/17,04:10,0.908,1.413,0.946,1.701,1.141,0.501,0.913,0.848,�k�k��,3.5,��
2017/08/17,04:20,0.908,1.416,0.941,1.702,1.140,0.503,0.914,0.848,�k�k��,3.6,��
2017/08/17,04:30,0.910,1.416,0.947,1.704,1.142,0.503,0.913,0.848,�k�k��,3.7,��
2017/08/17,04:40,0.908,1.416,0.946,1.705,1.142,0.504,0.913,0.849,�k�k��,3.8,��
2017/08/17,04:50,0.911,1.418,0.946,1.707,1.145,0.502,0.914,0.850,�k��,3.0,��
2017/08/17,05:00,0.909,1.416,0.946,1.703,1.144,0.503,0.914,0.850,�k��,3.4,��
2017/08/17,05:10,0.912,1.421,0.949,1.707,1.145,0.502,0.913,0.847,�k�k��,2.9,��
2017/08/17,05:20,0.912,1.420,0.945,1.710,1.144,0.503,0.916,0.850,�k�k��,3.0,��
2017/08/17,05:30,0.911,1.421,0.947,1.709,1.148,0.504,0.917,0.850,�k�k��,2.6,��
2017/08/17,05:40,0.913,1.423,0.947,1.710,1.149,0.503,0.915,0.850,�k�k��,2.6,��
2017/08/17,05:50,0.913,1.424,0.947,1.710,1.148,0.503,0.916,0.850,�k�k��,3.1,��
2017/08/17,06:00,0.914,1.420,0.949,1.713,1.147,0.504,0.917,0.849,�k�k��,3.2,��
2017/08/17,06:10,0.912,1.423,0.947,1.713,1.149,0.504,0.919,0.851,�k�k��,3.6,��
2017/08/17,06:20,0.912,1.426,0.950,1.714,1.150,0.504,0.917,0.852,�k�k��,3.6,��
2017/08/17,06:30,0.913,1.425,0.949,1.711,1.152,0.503,0.921,0.852,�k�k��,4.0,��
2017/08/17,06:40,0.913,1.426,0.948,1.714,1.155,0.504,0.919,0.852,�k�k��,3.5,��
2017/08/17,06:50,0.914,1.425,0.948,1.713,1.151,0.504,0.919,0.850,�k�k��,3.4,��
2017/08/17,07:00,0.916,1.426,0.951,1.714,1.152,0.505,0.920,0.850,�k��,2.9,��
2017/08/17,07:10,0.915,1.427,0.950,1.717,1.155,0.503,0.920,0.854,�k��,3.5,��
2017/08/17,07:20,0.917,1.427,0.950,1.717,1.153,0.504,0.917,0.853,�k��,3.2,��
2017/08/17,07:30,0.913,1.427,0.948,1.718,1.153,0.505,0.918,0.853,�k��,3.5,��
2017/08/17,07:40,0.914,1.424,0.949,1.718,1.154,0.503,0.920,0.852,�k��,3.6,��
2017/08/17,07:50,0.916,1.425,0.950,1.720,1.153,0.503,0.921,0.852,�k��,4.0,��
2017/08/17,08:00,0.917,1.427,0.949,1.720,1.156,0.505,0.919,0.851,�k��,2.8,��
2017/08/17,08:10,0.917,1.426,0.950,1.721,1.159,0.505,0.921,0.852,�k�k��,2.6,��
2017/08/17,08:20,0.914,1.430,0.953,1.720,1.155,0.505,0.921,0.849,�k�k��,3.2,��
2017/08/17,08:30,0.915,1.429,0.950,1.718,1.156,0.505,0.921,0.852,�k��,3.3,��
2017/08/17,08:40,0.915,1.429,0.953,1.719,1.158,0.504,0.922,0.852,�k�k��,3.0,��
2017/08/17,08:50,0.916,1.429,0.953,1.717,1.158,0.504,0.923,0.853,�k�k��,2.3,��
2017/08/17,09:00,0.916,1.428,0.953,1.719,1.158,0.504,0.922,0.853,�k��,2.3,��
2017/08/17,09:10,0.916,1.430,0.951,1.724,1.158,0.505,0.922,0.852,�k��,2.3,��
2017/08/17,09:20,0.917,1.430,0.951,1.723,1.159,0.505,0.922,0.854,�k�k��,2.5,��
2017/08/17,09:30,0.919,1.430,0.953,1.726,1.160,0.506,0.922,0.851,�k�k��,1.5,��
2017/08/17,09:40,0.918,1.429,0.954,1.723,1.161,0.505,0.923,0.853,�k,1.9,��
2017/08/17,09:50,0.917,1.433,0.953,1.726,1.159,0.505,0.925,0.855,�k,1.7,��
2017/08/17,10:00,0.920,1.431,0.955,1.725,1.161,0.505,0.926,0.853,�k,1.7,��
2017/08/17,10:10,0.918,1.431,0.955,1.726,1.163,0.506,0.923,0.855,�k�k��,2.0,��
2017/08/17,10:20,0.919,1.433,0.953,1.723,1.163,0.506,0.925,0.854,�k�k��,2.8,��
2017/08/17,10:30,0.918,1.436,0.952,1.724,1.164,0.507,0.926,0.854,�k�k��,2.6,��
2017/08/17,10:40,0.921,1.436,0.952,1.728,1.164,0.505,0.925,0.855,�k,3.0,��
2017/08/17,10:50,0.925,1.436,0.956,1.726,1.165,0.505,0.926,0.856,�k�k��,3.2,��
2017/08/17,11:00,0.923,1.440,0.955,1.725,1.167,0.505,0.926,0.854,�k�k��,3.0,��
2017/08/17,11:10,0.923,1.439,0.956,1.723,1.167,0.506,0.925,0.855,�k�k��,3.5,��
2017/08/17,11:20,0.923,1.441,0.957,1.725,1.166,0.506,0.926,0.856,�k�k��,3.4,��
2017/08/17,11:30,0.924,1.444,0.958,1.729,1.172,0.506,0.928,0.856,�k��,3.2,��
2017/08/17,11:40,0.923,1.442,0.957,1.729,1.172,0.508,0.925,0.857,�k��,3.4,��
2017/08/17,11:50,0.923,1.445,0.959,1.734,1.174,0.507,0.927,0.858,�k�k��,3.6,��
2017/08/17,12:00,0.926,1.447,0.959,1.730,1.175,0.507,0.926,0.857,�k��,3.5,��
2017/08/17,12:10,0.927,1.448,0.960,1.729,1.175,0.508,0.929,0.857,�k�k��,3.6,��
2017/08/17,12:20,0.926,1.447,0.960,1.731,1.174,0.508,0.929,0.856,�k��,3.3,��
2017/08/17,12:30,0.926,1.446,0.958,1.732,1.175,0.509,0.928,0.856,�k��,3.5,��
2017/08/17,12:40,0.927,1.449,0.959,1.732,1.172,0.507,0.928,0.860,�k��,3.5,��
2017/08/17,12:50,0.925,1.447,0.959,1.733,1.175,0.508,0.928,0.857,�k��,3.1,��
2017/08/17,13:00,0.928,1.450,0.961,1.732,1.177,0.507,0.930,0.857,�k�k��,3.1,��
2017/08/17,13:10,0.927,1.451,0.960,1.732,1.178,0.507,0.928,0.858,�k�k��,3.0,��
2017/08/17,13:20,0.925,1.448,0.961,1.734,1.179,0.508,0.929,0.858,�k�k��,3.0,��
2017/08/17,13:30,0.929,1.451,0.961,1.733,1.176,0.509,0.929,0.858,�k�k��,2.5,��
2017/08/17,13:40,0.930,1.450,0.961,1.736,1.177,0.509,0.928,0.856,�k�k��,2.3,��
2017/08/17,13:50,0.928,1.450,0.960,1.737,1.178,0.508,0.929,0.859,�k��,3.2,��
2017/08/17,14:00,0.926,1.452,0.962,1.736,1.178,0.508,0.931,0.858,�k�k��,2.9,��
2017/08/17,14:10,0.929,1.453,0.962,1.735,1.180,0.508,0.930,0.856,�k��,2.3,��
2017/08/17,14:20,0.927,1.453,0.962,1.734,1.178,0.507,0.929,0.859,���k��,1.5,��
2017/08/17,14:30,0.928,1.452,0.963,1.736,1.180,0.509,0.930,0.857,��,2.0,��
2017/08/17,14:40,0.929,1.450,0.962,1.736,1.181,0.509,0.930,0.858,���k��,1.7,��
2017/08/17,14:50,0.931,1.454,0.963,1.737,1.183,0.510,0.930,0.858,���k��,2.2,��
2017/08/17,15:00,0.929,1.455,0.963,1.737,1.180,0.509,0.930,0.858,�k��,2.0,��
2017/08/17,15:10,0.929,1.454,0.960,1.736,1.179,0.509,0.930,0.859,���k��,2.2,��
2017/08/17,15:20,0.931,1.455,0.962,1.739,1.180,0.508,0.931,0.861,���k��,2.0,��
2017/08/17,15:30,0.932,1.455,0.963,1.740,1.185,0.510,0.930,0.860,�k��,2.5,��
2017/08/17,15:40,0.930,1.454,0.964,1.740,1.182,0.509,0.931,0.858,�k��,2.6,��
2017/08/17,15:50,0.929,1.452,0.965,1.741,1.186,0.508,0.931,0.859,���k��,2.2,��
2017/08/17,16:00,0.929,1.456,0.962,1.743,1.183,0.510,0.930,0.862,�k��,1.7,��
2017/08/17,16:10,0.929,1.456,0.964,1.742,1.183,0.508,0.929,0.860,�k��,1.7,��
2017/08/17,16:20,0.929,1.454,0.961,1.742,1.186,0.510,0.932,0.858,�k��,1.4,��
2017/08/17,16:30,0.932,1.453,0.964,1.741,1.184,0.511,0.929,0.859,���k��,1.4,��
2017/08/17,16:40,0.929,1.457,0.964,1.740,1.184,0.510,0.930,0.862,��,1.4,��
2017/08/17,16:50,0.930,1.455,0.964,1.741,1.186,0.512,0.930,0.859,���k��,1.9,��
2017/08/17,17:00,0.930,1.453,0.965,1.742,1.186,0.510,0.930,0.859,���k��,1.4,��
2017/08/17,17:10,0.930,1.456,0.966,1.742,1.184,0.510,0.929,0.858,�k��,1.5,��
2017/08/17,17:20,0.931,1.456,0.966,1.743,1.183,0.511,0.929,0.861,���k��,1.4,��
2017/08/17,17:30,0.929,1.457,0.966,1.742,1.185,0.511,0.928,0.861,�k�k��,1.5,��
2017/08/17,17:40,0.928,1.458,0.967,1.745,1.184,0.511,0.932,0.860,��,1.2,��
2017/08/17,17:50,0.931,1.459,0.965,1.742,1.186,0.513,0.933,0.861,�k��,1.2,��
2017/08/17,18:00,0.930,1.455,0.965,1.744,1.188,0.513,0.931,0.860,�k�k��,1.7,��
2017/08/17,18:10,0.930,1.459,0.965,1.746,1.188,0.512,0.932,0.860,�k,1.5,��
2017/08/17,18:20,0.932,1.457,0.967,1.742,1.185,0.512,0.934,0.863,�k,1.4,��
2017/08/17,18:30,0.930,1.458,0.966,1.744,1.189,0.512,0.931,0.862,��,0.8,��
2017/08/17,18:40,0.931,1.459,0.967,1.742,1.185,0.512,0.931,0.862,�k�k��,1.7,��
2017/08/17,18:50,0.930,1.457,0.967,1.748,1.186,0.512,0.931,0.862,�k��,1.9,��
2017/08/17,19:00,0.933,1.457,0.965,1.742,1.185,0.512,0.933,0.863,�k�k��,2.3,��
2017/08/17,19:10,0.932,1.460,0.965,1.747,1.187,0.510,0.932,0.862,�k�k��,2.0,��
2017/08/17,19:20,0.932,1.459,0.967,1.745,1.187,0.512,0.931,0.862,�k�k��,1.7,��
2017/08/17,19:30,0.928,1.460,0.967,1.738,1.187,0.513,0.932,0.863,�k�k��,1.7,��
2017/08/17,19:40,0.930,1.459,0.967,1.743,1.186,0.513,0.935,0.862,�k�k��,2.2,��
2017/08/17,19:50,0.930,1.459,0.965,1.744,1.183,0.512,0.933,0.863,�k��,2.3,��
2017/08/17,20:00,0.931,1.458,0.967,1.745,1.184,0.513,0.932,0.864,�k��,2.3,��
2017/08/17,20:10,0.930,1.459,0.968,1.743,1.187,0.512,0.932,0.863,�k�k��,1.9,��
2017/08/17,20:20,0.932,1.457,0.966,1.746,1.186,0.512,0.932,0.864,�k�k��,2.2,��
2017/08/17,20:30,0.933,1.459,0.964,1.742,1.186,0.512,0.933,0.863,�k,2.3,��
2017/08/17,20:40,0.929,1.460,0.964,1.746,1.187,0.512,0.932,0.863,�k�k��,1.9,��
2017/08/17,20:50,0.931,1.457,0.965,1.746,1.186,0.512,0.933,0.862,�k,1.2,��
2017/08/17,21:00,0.931,1.462,0.967,1.742,1.188,0.510,0.933,0.863,�k�k��,1.5,��
2017/08/17,21:10,0.933,1.460,0.966,1.746,1.186,0.512,0.931,0.862,�k�k��,1.7,��
2017/08/17,21:20,0.934,1.461,0.966,1.744,1.186,0.512,0.933,0.863,�k,1.4,��
2017/08/17,21:30,0.931,1.460,0.966,1.743,1.187,0.510,0.932,0.863,�k�k��,1.4,��
2017/08/17,21:40,0.932,1.458,0.965,1.747,1.188,0.511,0.930,0.864,�k,1.4,��
2017/08/17,21:50,0.933,1.460,0.966,1.745,1.187,0.511,0.931,0.862,�k,1.5,��
2017/08/17,22:00,0.931,1.461,0.966,1.745,1.186,0.511,0.931,0.863,�k�k��,1.4,��
2017/08/17,22:10,0.934,1.460,0.967,1.744,1.186,0.510,0.931,0.864,�k,1.1,��
2017/08/17,22:20,0.932,1.460,0.968,1.745,1.185,0.512,0.932,0.864,�k,1.5,��
2017/08/17,22:30,0.932,1.461,0.966,1.745,1.186,0.509,0.930,0.865,�k,1.2,��
2017/08/17,22:40,0.930,1.461,0.968,1.745,1.186,0.510,0.930,0.864,�k,1.2,��
2017/08/17,22:50,0.933,1.458,0.967,1.744,1.186,0.511,0.932,0.863,�k�k��,1.1,��
2017/08/17,23:00,0.931,1.461,0.967,1.745,1.185,0.511,0.931,0.863,�k��,0.9,��
2017/08/17,23:10,0.928,1.459,0.964,1.746,1.186,0.511,0.934,0.861,�k�k��,0.9,��
2017/08/17,23:20,0.930,1.458,0.967,1.744,1.189,0.511,0.930,0.863,-,CALM,��
2017/08/17,23:30,0.931,1.459,0.964,1.745,1.188,0.511,0.930,0.864,�k��,0.9,��
2017/08/17,23:40,0.931,1.459,0.967,1.747,1.188,0.511,0.932,0.863,�k��,1.2,��
2017/08/17,23:50,0.931,1.459,0.965,1.747,1.187,0.512,0.930,0.863,�k�k��,1.2,��
